Hibbing, MN

3:42 AM CDT on May 30, 2017 (GMT -0500)
Chisholm-hibbing

Weather History for KHIB - November, 2012

Change the Weather History Date:

Friday, November 2, 2012

  Actual Average Record
Temperature  
Mean Temperature 27 °F -  
Max Temperature 37 °F 41 °F 66 °F (1978)
Min Temperature 17 °F 25 °F 0 °F (1966)
Degree Days  
Heating Degree Days 38    
Moisture  
Dew Point 20 °F    
Average Humidity 73    
Maximum Humidity 92    
Minimum Humidity 52    
Precipitation  
Precipitation 0.00 in - - ()
Sea Level Pressure  
Sea Level Pressure 30.19 in    
Wind  
Wind Speed 5 mph (North)    
Max Wind Speed 10 mph    
Max Gust Speed -    
Visibility 10 miles    
Events      
Averages and records for this station are not official NWS values.
T = Trace of Precipitation, MM = Missing Value Source: NWS Daily Summary

Daily Weather History Graph

Daily Weather History Graph

Search for Another Location

Airport or City:

Trip Planner

Search our weather history database for the weather conditions in past years. The results will help you decide how hot, cold, wet, or windy it might be!

Date:

Astronomy

Nov. 02, 2012 Rise Set
Actual Time 7:57 AM CDT 5:51 PM CDT
Civil Twilight 7:24 AM CDT 6:24 PM CDT
Nautical Twilight 6:48 AM CDT 7:00 PM CDT
Astronomical Twilight 6:12 AM CDT 7:36 PM CDT
Moon 8:31 PM CDT (11/2) 11:26 AM CDT (11/2)
Length of Visible Light 10h 59m
Length of Day
9h 54m
Waning Gibbous, 87% of the Moon is Illuminated
Nov 2
Waning Gibbous
Nov 6
Last Quarter
Nov 13
New
Nov 20
First Quarter
Nov 28
Full

Hourly Weather History & Observations

Time (CDT) Temp. Windchill Dew Point Humidity Pressure Visibility Wind Dir Wind Speed Gust Speed Precip Events Conditions
12:17 AM 28.4 °F 19.1 °F 21.2 °F 74% 30.08 in 10.0 mi North 10.4 mph - N/A   Scattered Clouds
12:53 AM 28.0 °F 20.8 °F 19.9 °F 72% 30.13 in 10.0 mi North 6.9 mph - N/A   Clear
1:53 AM 27.0 °F 21.6 °F 19.9 °F 75% 30.13 in 10.0 mi North 4.6 mph - N/A   Clear
2:53 AM 26.1 °F 17.6 °F 19.9 °F 78% 30.15 in 10.0 mi North 8.1 mph - N/A   Clear
3:53 AM 24.1 °F 17.0 °F 19.0 °F 81% 30.15 in 10.0 mi North 5.8 mph - N/A   Clear
4:53 AM 19.9 °F 12.1 °F 16.0 °F 85% 30.16 in 10.0 mi NNW 5.8 mph - N/A   Clear
5:53 AM 21.0 °F 14.6 °F 17.1 °F 85% 30.17 in 10.0 mi North 4.6 mph - N/A   Clear
6:53 AM 17.1 °F - 15.1 °F 92% 30.18 in 10.0 mi Calm Calm - N/A   Clear
7:53 AM 18.0 °F - 15.1 °F 88% 30.19 in 10.0 mi Calm Calm - N/A   Clear
8:43 AM 21.2 °F - 17.6 °F 86% 30.13 in 10.0 mi Calm Calm - N/A   Mostly Cloudy
8:53 AM 23.0 °F - 18.0 °F 81% 30.20 in 10.0 mi Calm Calm - N/A   Mostly Cloudy
9:09 AM 24.8 °F 19.1 °F 19.4 °F 80% 30.13 in 10.0 mi North 4.6 mph - N/A   Scattered Clouds
9:53 AM 26.1 °F 17.6 °F 19.9 °F 78% 30.21 in 10.0 mi North 8.1 mph - 0.00 in   Partly Cloudy
10:53 AM 28.0 °F 22.8 °F 19.9 °F 72% 30.22 in 10.0 mi NNW 4.6 mph - 0.00 in   Partly Cloudy
11:53 AM 30.9 °F 25.2 °F 21.0 °F 67% 30.23 in 10.0 mi Variable 5.8 mph - N/A   Clear
12:53 PM 32.0 °F 28.7 °F 21.0 °F 64% 30.22 in 10.0 mi Variable 3.5 mph - N/A   Clear
1:53 PM 36.0 °F 32.1 °F 21.0 °F 55% 30.20 in 10.0 mi Variable 4.6 mph - N/A   Clear
2:53 PM 37.0 °F 34.5 °F 21.0 °F 52% 30.19 in 10.0 mi Variable 3.5 mph - N/A   Clear
3:53 PM 37.9 °F 32.1 °F 21.9 °F 53% 30.19 in 10.0 mi North 8.1 mph - N/A   Clear
4:53 PM 34.0 °F 31.0 °F 21.0 °F 59% 30.20 in 10.0 mi North 3.5 mph - N/A   Clear
5:53 PM 30.0 °F 26.5 °F 21.0 °F 69% 30.21 in 10.0 mi NW 3.5 mph - N/A   Clear
6:53 PM 30.9 °F - 21.0 °F 67% 30.22 in 10.0 mi Calm Calm - N/A   Clear
7:53 PM 30.9 °F - 21.0 °F 67% 30.23 in 10.0 mi Calm Calm - N/A   Clear
8:53 PM 30.9 °F 27.5 °F 21.0 °F 67% 30.23 in 10.0 mi East 3.5 mph - N/A   Clear
9:53 PM 28.9 °F - 21.0 °F 72% 30.24 in 10.0 mi Calm Calm - N/A   Clear
10:53 PM 28.9 °F 23.9 °F 21.9 °F 75% 30.25 in 10.0 mi East 4.6 mph - N/A   Clear
11:53 PM 28.0 °F - 21.9 °F 78% 30.25 in 10.0 mi Calm Calm - N/A   Clear